Location: Boiro
(42.6475°N, 8.8834°W)
Time: 07:13:51
(UTC+01:00)

SR - Pass Details

Date: 03 December 2021
Orbit: 583 x 872 km, 66.7° (Epoch: 16 January)

Event Time Altitude Azimuth Distance (km) Brightness Sun altitude
Rises 03:07:15 0° 268° (W) 2,928 - -60.5°
Reaches altitude 10° 03:11:27 10° 306° (NW) 1,965 - -59.8°
Maximum altitude 03:12:36 11° 321° (NW) 1,896 - -59.7°
Drops below altitude 10° 03:13:44 10° 337° (NNW) 1,943 - -59.5°
Sets 03:17:47 0° 15° (NNE) 2,820 - -58.9°
